Find Explorer 25

NORAD ID: 932 Int'l Des: 1964-076 Owner: LARCN Country: US operational
LEOELLIPTICALPOLAR

当前视图

正在加载3D地球...

关于 Explorer 25

正在加载描述...

即将过境

Passes for default location (London). Set your location on the main map for personalized predictions.

高度历史

Loading altitude history...

两行轨道根数

1 932U 64076B 26150.13247270 .00000371 00000-0 13169-3 0 9991
2 932 81.3425 32.3879 1117762 309.3607 41.3487 12.67214092816842
Epoch: May 30, 2026 • Age: 8 hours

当前状态

高度 1340.3 km
速度 7.22 km/s
星下点 40.69°N, 12.7°W
类型 other

Most Searched